| time (UTC) | temp C | wind direction | speed KPH | gust KPH | rain 1hr cm | rain 24hr cm | rain mn cm | humidity % | barometer mb |
| 20260510075318 | 8 | 161 | 0.0 | 0.0 | 0.00 | 0.00 | 0.00 | 72 | 1029.2 |
| 20260510074817 | 8 | 161 | 0.0 | 1.6 | 0.00 | 0.00 | 0.00 | 72 | 1029.2 |
| 20260510074316 | 8 | 161 | 0.0 | 1.6 | 0.00 | 0.00 | 0.00 | 72 | 1029.1 |
| 20260510074039 | 8 | 161 | 0.0 | 0.0 | 0.00 | 0.00 | 0.00 | 72 | 1029.1 |
| 20260510073317 | 8 | 161 | 0.0 | 0.0 | 0.00 | 0.00 | 0.00 | 70 | 1029.2 |
| 20260510072817 | 8 | 161 | 0.0 | 0.0 | 0.00 | 0.00 | 0.00 | 69 | 1029.2 |
| 20260510072317 | 8 | 161 | 0.0 | 1.6 | 0.00 | 0.00 | 0.00 | 68 | 1028.9 |
| 20260510071818 | 9 | 159 | 0.0 | 1.6 | 0.00 | 0.00 | 0.00 | 68 | 1028.9 |
| 20260510071317 | 9 | 255 | 0.0 | 0.0 | 0.00 | 0.00 | 0.00 | 68 | 1028.9 |
| 20260510070817 | 10 | 255 | 0.0 | 0.0 | 0.00 | 0.00 | 0.00 | 66 | 1028.9 |
| 20260510070316 | 10 | 255 | 0.0 | 0.0 | 0.00 | 0.00 | 0.00 | 64 | 1028.8 |
| 20260510065818 | 10 | 255 | 0.0 | 0.0 | 0.00 | 0.00 | 0.00 | 64 | 1028.9 |
| 20260510065316 | 10 | 255 | 0.0 | 0.0 | 0.00 | 0.00 | 0.00 | 65 | 1028.9 |
| 20260510064816 | 10 | 255 | 0.0 | 0.0 | 0.00 | 0.00 | 0.00 | 65 | 1029.1 |
| 20260510064316 | 10 | 262 | 0.0 | 0.0 | 0.00 | 0.00 | 0.00 | 66 | 1028.9 |
| 20260510063816 | 10 | 262 | 0.0 | 0.0 | 0.00 | 0.00 | 0.00 | 68 | 1029.1 |
| 20260510063316 | 10 | 262 | 0.0 | 0.0 | 0.00 | 0.00 | 0.00 | 66 | 1029.1 |
| 20260510062815 | 10 | 262 | 0.0 | 1.6 | 0.00 | 0.00 | 0.00 | 64 | 1029.1 |
| 20260510062544 | 10 | 262 | 0.0 | 1.6 | 0.00 | 0.00 | 0.00 | 64 | 1029.1 |
| 20260510062032 | 10 | 251 | 0.0 | 0.0 | 0.00 | 0.00 | 0.00 | 66 | 1029.1 |
| 20260510061317 | 11 | 251 | 0.0 | 0.0 | 0.00 | 0.00 | 0.00 | 64 | 1029.1 |
| 20260510060816 | 11 | 251 | 0.0 | 0.0 | 0.00 | 0.00 | 0.00 | 63 | 1029.1 |
| 20260510060536 | 11 | 296 | 0.0 | 0.0 | 0.00 | 0.00 | 0.00 | 61 | 1028.9 |
| 20260510055815 | 11 | 316 | 0.0 | 1.6 | 0.00 | 0.00 | 0.00 | 60 | 1028.8 |
| 20260510055315 | 12 | 49 | 0.0 | 1.6 | 0.00 | 0.00 | 0.00 | 58 | 1028.9 |
| 20260510054815 | 12 | 49 | 0.0 | 1.6 | 0.00 | 0.00 | 0.00 | 58 | 1028.8 |
| 20260510054315 | 13 | 264 | 0.0 | 1.6 | 0.00 | 0.00 | 0.00 | 54 | 1028.9 |
| 20260510053816 | 14 | 120 | 0.0 | 4.8 | 0.00 | 0.00 | 0.00 | 52 | 1028.8 |
| 20260510053315 | 15 | 120 | 1.6 | 9.7 | 0.00 | 0.00 | 0.00 | 47 | 1028.6 |
| 20260510052816 | 15 | 124 | 1.6 | 9.7 | 0.00 | 0.00 | 0.00 | 47 | 1028.7 |
| 20260510052314 | 14 | 183 | 4.8 | 9.7 | 0.00 | 0.00 | 0.00 | 48 | 1028.7 |
| 20260510051815 | 14 | 233 | 3.2 | 8.0 | 0.00 | 0.00 | 0.00 | 50 | 1028.9 |
| 20260510051314 | 15 | 134 | 0.0 | 9.7 | 0.00 | 0.00 | 0.00 | 48 | 1028.8 |
| 20260510050814 | 15 | 162 | 4.8 | 9.7 | 0.00 | 0.00 | 0.00 | 46 | 1028.9 |
| 20260510050314 | 14 | 190 | 6.4 | 8.0 | 0.00 | 0.00 | 0.00 | 48 | 1028.9 |
| 20260510045814 | 13 | 247 | 1.6 | 1.6 | 0.00 | 0.00 | 0.00 | 53 | 1028.8 |
| 20260510045314 | 13 | 244 | 0.0 | 0.0 | 0.00 | 0.00 | 0.00 | 53 | 1028.7 |
| 20260510044813 | 14 | 244 | 0.0 | 1.6 | 0.00 | 0.00 | 0.00 | 52 | 1028.8 |
| 20260510044315 | 14 | 243 | 0.0 | 1.6 | 0.00 | 0.00 | 0.00 | 51 | 1028.9 |
| 20260510044031 | 15 | 231 | 0.0 | 0.0 | 0.00 | 0.00 | 0.00 | 51 | 1028.8 |
| 20260510043313 | 15 | 157 | 0.0 | 0.0 | 0.00 | 0.00 | 0.00 | 52 | 1028.8 |
| 20260510042813 | 15 | 157 | 0.0 | 3.2 | 0.00 | 0.00 | 0.00 | 51 | 1028.7 |
| 20260510042312 | 15 | 155 | 0.0 | 3.2 | 0.00 | 0.00 | 0.00 | 51 | 1028.6 |
| 20260510041814 | 15 | 243 | 0.0 | 1.6 | 0.00 | 0.00 | 0.00 | 50 | 1028.6 |
| 20260510041313 | 15 | 252 | 0.0 | 3.2 | 0.00 | 0.00 | 0.00 | 49 | 1028.6 |
| 20260510040814 | 16 | 214 | 1.6 | 4.8 | 0.00 | 0.00 | 0.00 | 48 | 1028.5 |
| 20260510040312 | 16 | 223 | 1.6 | 6.4 | 0.00 | 0.00 | 0.00 | 48 | 1028.6 |
| 20260510035812 | 16 | 216 | 3.2 | 6.4 | 0.00 | 0.00 | 0.00 | 48 | 1028.5 |
| 20260510035313 | 16 | 216 | 0.0 | 3.2 | 0.00 | 0.00 | 0.00 | 48 | 1028.4 |
| 20260510034813 | 17 | 231 | 0.0 | 1.6 | 0.00 | 0.00 | 0.00 | 48 | 1028.4 |
| 20260510034313 | 17 | 231 | 0.0 | 1.6 | 0.00 | 0.00 | 0.00 | 44 | 1028.4 |
| 20260510033812 | 17 | 216 | 0.0 | 4.8 | 0.00 | 0.00 | 0.00 | 44 | 1028.5 |
| 20260510033538 | 18 | 116 | 0.0 | 4.8 | 0.00 | 0.00 | 0.00 | 39 | 1028.3 |
| 20260510032811 | 18 | 140 | 0.0 | 6.4 | 0.00 | 0.00 | 0.00 | 39 | 1028.1 |
| 20260510032313 | 18 | 169 | 3.2 | 6.4 | 0.00 | 0.00 | 0.00 | 41 | 1028.2 |
| 20260510032306 | 18 | 210 | 0.0 | 1.6 | 0.00 | 0.00 | 0.00 | 41 | 1028.1 |
| 20260510031312 | 18 | 210 | 0.0 | 0.0 | 0.00 | 0.00 | 0.00 | 43 | 1028.0 |
| 20260510030811 | 18 | 210 | 0.0 | 1.6 | 0.00 | 0.00 | 0.00 | 41 | 1028.1 |
| 20260510030311 | 18 | 210 | 0.0 | 1.6 | 0.00 | 0.00 | 0.00 | 40 | 1028.1 |
| 20260510025811 | 19 | 162 | 0.0 | 1.6 | 0.00 | 0.00 | 0.00 | 41 | 1028.2 |
| 20260510025310 | 20 | 162 | 0.0 | 1.6 | 0.00 | 0.00 | 0.00 | 38 | 1028.1 |
| 20260510024811 | 20 | 111 | 0.0 | 1.6 | 0.00 | 0.00 | 0.00 | 36 | 1028.0 |
| 20260510024311 | 20 | 111 | 0.0 | 3.2 | 0.00 | 0.00 | 0.00 | 35 | 1028.0 |
| 20260510023812 | 20 | 111 | 0.0 | 4.8 | 0.00 | 0.00 | 0.00 | 35 | 1028.1 |
| 20260510023310 | 21 | 110 | 1.6 | 4.8 | 0.00 | 0.00 | 0.00 | 34 | 1028.2 |
| 20260510023035 | 21 | 120 | 0.0 | 4.8 | 0.00 | 0.00 | 0.00 | 33 | 1028.1 |
| 20260510022538 | 21 | 113 | 0.0 | 4.8 | 0.00 | 0.00 | 0.00 | 33 | 1028.1 |
| 20260510022034 | 21 | 123 | 0.0 | 8.0 | 0.00 | 0.00 | 0.00 | 33 | 1028.1 |
| 20260510021310 | 22 | 102 | 0.0 | 14.5 | 0.00 | 0.00 | 0.00 | 31 | 1028.2 |
| 20260510020810 | 22 | 107 | 3.2 | 14.5 | 0.00 | 0.00 | 0.00 | 30 | 1028.1 |
| 20260510020535 | 22 | 97 | 6.4 | 14.5 | 0.00 | 0.00 | 0.00 | 29 | 1028.2 |
| 20260510015809 | 22 | 134 | 6.4 | 14.5 | 0.00 | 0.00 | 0.00 | 30 | 1028.3 |
| 20260510015311 | 22 | 113 | 4.8 | 14.5 | 0.00 | 0.00 | 0.00 | 30 | 1028.2 |
| 20260510014809 | 22 | 69 | 6.4 | 11.3 | 0.00 | 0.00 | 0.00 | 29 | 1028.2 |
| 20260510014309 | 22 | 142 | 6.4 | 14.5 | 0.00 | 0.00 | 0.00 | 29 | 1028.3 |
| 20260510013809 | 23 | 149 | 8.0 | 14.5 | 0.00 | 0.00 | 0.00 | 30 | 1028.2 |
| 20260510013532 | 23 | 142 | 6.4 | 11.3 | 0.00 | 0.00 | 0.00 | 29 | 1028.2 |
| 20260510012810 | 22 | 148 | 6.4 | 9.7 | 0.00 | 0.00 | 0.00 | 29 | 1028.3 |
| 20260510012534 | 22 | 142 | 3.2 | 14.5 | 0.00 | 0.00 | 0.00 | 31 | 1028.4 |
| 20260510012027 | 22 | 103 | 6.4 | 17.7 | 0.00 | 0.00 | 0.00 | 30 | 1028.3 |
| 20260510011309 | 22 | 127 | 9.7 | 17.7 | 0.00 | 0.00 | 0.00 | 29 | 1028.3 |
| 20260510011028 | 22 | 118 | 6.4 | 16.1 | 0.00 | 0.00 | 0.00 | 30 | 1028.4 |
| 20260510010310 | 22 | 124 | 9.7 | 14.5 | 0.00 | 0.00 | 0.00 | 29 | 1028.5 |
| 20260510005808 | 22 | 73 | 3.2 | 14.5 | 0.00 | 0.00 | 0.00 | 30 | 1028.5 |
| 20260510005309 | 22 | 118 | 8.0 | 14.5 | 0.00 | 0.00 | 0.00 | 29 | 1028.6 |
| 20260510005031 | 23 | 116 | 6.4 | 14.5 | 0.00 | 0.00 | 0.00 | 29 | 1028.5 |
| 20260510004536 | 23 | 133 | 4.8 | 19.3 | 0.00 | 0.00 | 0.00 | 30 | 1028.6 |
| 20260510003808 | 23 | 128 | 8.0 | 19.3 | 0.00 | 0.00 | 0.00 | 29 | 1028.6 |
| 20260510003310 | 23 | 113 | 8.0 | 14.5 | 0.00 | 0.00 | 0.00 | 29 | 1028.6 |
| 20260510002808 | 23 | 92 | 6.4 | 17.7 | 0.00 | 0.00 | 0.00 | 29 | 1028.5 |
| 20260510002309 | 23 | 100 | 6.4 | 17.7 | 0.00 | 0.00 | 0.00 | 29 | 1028.5 |
| 20260510001808 | 23 | 107 | 4.8 | 16.1 | 0.00 | 0.00 | 0.00 | 28 | 1028.6 |
| 20260510001307 | 23 | 109 | 8.0 | 14.5 | 0.00 | 0.00 | 0.00 | 27 | 1028.6 |
| 20260510001030 | 23 | 130 | 6.4 | 14.5 | 0.00 | 0.00 | 0.00 | 28 | 1028.5 |
| 20260510000308 | 23 | 97 | 8.0 | 16.1 | 0.00 | 0.00 | 0.00 | 27 | 1028.6 |
| 20260509235808 | 23 | 145 | 8.0 | 16.1 | 0.00 | 0.00 | 0.00 | 27 | 1028.6 |
| 20260509235307 | 23 | 107 | 6.4 | 16.1 | 0.00 | 0.00 | 0.00 | 28 | 1028.7 |
| 20260509234808 | 23 | 89 | 6.4 | 17.7 | 0.00 | 0.00 | 0.00 | 28 | 1028.7 |
| 20260509234307 | 23 | 116 | 12.9 | 17.7 | 0.00 | 0.00 | 0.00 | 27 | 1028.7 |
| 20260509233808 | 23 | 107 | 9.7 | 16.1 | 0.00 | 0.00 | 0.00 | 27 | 1028.8 |
| 20260509233747 | 23 | 106 | 8.0 | 16.1 | 0.00 | 0.00 | 0.00 | 27 | 1028.8 |
| 20260509232806 | 23 | 100 | 6.4 | 16.1 | 0.00 | 0.00 | 0.00 | 26 | 1028.8 |
| 20260509232307 | 23 | 90 | 6.4 | 17.7 | 0.00 | 0.00 | 0.00 | 27 | 1028.9 |
| 20260509231806 | 23 | 90 | 11.3 | 20.9 | 0.00 | 0.00 | 0.00 | 26 | 1028.9 |
| 20260509231307 | 23 | 110 | 4.8 | 20.9 | 0.00 | 0.00 | 0.00 | 27 | 1029.1 |
| 20260509231026 | 24 | 131 | 4.8 | 19.3 | 0.00 | 0.00 | 0.00 | 28 | 1029.1 |
| 20260509230308 | 23 | 80 | 9.7 | 22.5 | 0.00 | 0.00 | 0.00 | 27 | 1029.1 |
| 20260509225805 | 23 | 90 | 9.7 | 22.5 | 0.00 | 0.00 | 0.00 | 28 | 1029.2 |
| 20260509225308 | 23 | 107 | 9.7 | 20.9 | 0.00 | 0.00 | 0.00 | 27 | 1029.2 |
| 20260509224805 | 23 | 107 | 4.8 | 14.5 | 0.00 | 0.00 | 0.00 | 29 | 1029.3 |
| 20260509224529 | 23 | 104 | 4.8 | 11.3 | 0.00 | 0.00 | 0.00 | 29 | 1029.4 |
| 20260509223806 | 23 | 104 | 8.0 | 19.3 | 0.00 | 0.00 | 0.00 | 29 | 1029.4 |
| 20260509223531 | 23 | 93 | 8.0 | 19.3 | 0.00 | 0.00 | 0.00 | 28 | 1029.5 |
| 20260509222807 | 23 | 152 | 8.0 | 17.7 | 0.00 | 0.00 | 0.00 | 27 | 1029.5 |
| 20260509222307 | 23 | 116 | 9.7 | 17.7 | 0.00 | 0.00 | 0.00 | 23 | 1029.5 |
| 20260509221807 | 23 | 87 | 6.4 | 22.5 | 0.00 | 0.00 | 0.00 | 26 | 1029.6 |
| 20260509221744 | 23 | 90 | 11.3 | 22.5 | 0.00 | 0.00 | 0.00 | 22 | 1029.6 |
| 20260509220806 | 23 | 127 | 8.0 | 19.3 | 0.00 | 0.00 | 0.00 | 24 | 1029.7 |
| 20260509220304 | 23 | 86 | 8.0 | 19.3 | 0.00 | 0.00 | 0.00 | 23 | 1029.8 |
| 20260509215804 | 23 | 158 | 11.3 | 19.3 | 0.00 | 0.00 | 0.00 | 23 | 1029.8 |
| 20260509215528 | 23 | 137 | 11.3 | 22.5 | 0.00 | 0.00 | 0.00 | 21 | 1029.9 |
| 20260509214803 | 23 | 114 | 9.7 | 22.5 | 0.00 | 0.00 | 0.00 | 23 | 1029.9 |
| 20260509214305 | 23 | 135 | 11.3 | 20.9 | 0.00 | 0.00 | 0.00 | 24 | 1029.9 |
| 20260509213803 | 23 | 102 | 12.9 | 20.9 | 0.00 | 0.00 | 0.00 | 23 | 1029.9 |
| 20260509213306 | 23 | 111 | 9.7 | 20.9 | 0.00 | 0.00 | 0.00 | 25 | 1030.0 |
| 20260509212804 | 23 | 114 | 11.3 | 19.3 | 0.00 | 0.00 | 0.00 | 22 | 1030.0 |
| 20260509212306 | 23 | 127 | 9.7 | 17.7 | 0.00 | 0.00 | 0.00 | 24 | 1029.9 |
| 20260509211804 | 23 | 61 | 4.8 | 17.7 | 0.00 | 0.00 | 0.00 | 24 | 1030.0 |
| 20260509211303 | 23 | 152 | 11.3 | 20.9 | 0.00 | 0.00 | 0.00 | 22 | 1030.0 |
| 20260509210804 | 23 | 68 | 8.0 | 20.9 | 0.00 | 0.00 | 0.00 | 25 | 1030.1 |
| 20260509210302 | 23 | 85 | 9.7 | 17.7 | 0.00 | 0.00 | 0.00 | 22 | 1030.1 |
| 20260509205805 | 23 | 93 | 11.3 | 20.9 | 0.00 | 0.00 | 0.00 | 25 | 1030.1 |
| 20260509205306 | 23 | 140 | 4.8 | 20.9 | 0.00 | 0.00 | 0.00 | 25 | 1030.0 |
| 20260509204804 | 23 | 130 | 9.7 | 20.9 | 0.00 | 0.00 | 0.00 | 25 | 1030.1 |
| 20260509204302 | 23 | 54 | 6.4 | 16.1 | 0.00 | 0.00 | 0.00 | 25 | 1030.1 |
| 20260509204035 | 23 | 51 | 6.4 | 19.3 | 0.00 | 0.00 | 0.00 | 25 | 1030.1 |
| 20260509203302 | 23 | 69 | 8.0 | 19.3 | 0.00 | 0.00 | 0.00 | 27 | 1030.1 |
| 20260509202802 | 23 | 109 | 6.4 | 17.7 | 0.00 | 0.00 | 0.00 | 26 | 1030.0 |
| 20260509202306 | 23 | 117 | 9.7 | 17.7 | 0.00 | 0.00 | 0.00 | 26 | 1030.1 |
| 20260509201803 | 23 | 107 | 9.7 | 17.7 | 0.00 | 0.00 | 0.00 | 29 | 1030.1 |
| 20260509201530 | 22 | 65 | 8.0 | 22.5 | 0.00 | 0.00 | 0.00 | 29 | 1030.1 |
| 20260509200802 | 22 | 128 | 12.9 | 22.5 | 0.00 | 0.00 | 0.00 | 27 | 1030.2 |
| 20260509200304 | 22 | 86 | 6.4 | 20.9 | 0.00 | 0.00 | 0.00 | 28 | 1030.2 |
| 20260509200027 | 23 | 128 | 12.9 | 20.9 | 0.00 | 0.00 | 0.00 | 27 | 1030.4 |
| 20260509195301 | 23 | 135 | 6.4 | 19.3 | 0.00 | 0.00 | 0.00 | 28 | 1030.4 |
| 20260509195034 | 23 | 83 | 6.4 | 17.7 | 0.00 | 0.00 | 0.00 | 27 | 1030.6 |
| 20260509194300 | 22 | 96 | 6.4 | 19.3 | 0.00 | 0.00 | 0.00 | 28 | 1030.7 |
| 20260509193802 | 22 | 135 | 11.3 | 19.3 | 0.00 | 0.00 | 0.00 | 26 | 1030.7 |
| 20260509193530 | 22 | 92 | 6.4 | 17.7 | 0.00 | 0.00 | 0.00 | 27 | 1030.7 |
| 20260509193025 | 22 | 100 | 6.4 | 19.3 | 0.00 | 0.00 | 0.00 | 26 | 1030.7 |
| 20260509192301 | 22 | 90 | 11.3 | 19.3 | 0.00 | 0.00 | 0.00 | 25 | 1030.7 |
| 20260509191802 | 22 | 100 | 8.0 | 14.5 | 0.00 | 0.00 | 0.00 | 26 | 1030.8 |
| 20260509191301 | 22 | 59 | 6.4 | 16.1 | 0.00 | 0.00 | 0.00 | 28 | 1030.8 |
| 20260509190800 | 21 | 124 | 6.4 | 16.1 | 0.00 | 0.00 | 0.00 | 27 | 1030.8 |
| 20260509190301 | 21 | 147 | 6.4 | 14.5 | 0.00 | 0.00 | 0.00 | 25 | 1030.8 |
| 20260509185800 | 21 | 111 | 9.7 | 16.1 | 0.00 | 0.00 | 0.00 | 25 | 1030.9 |
| 20260509185524 | 21 | 117 | 6.4 | 17.7 | 0.00 | 0.00 | 0.00 | 29 | 1031.0 |
| 20260509184800 | 21 | 92 | 6.4 | 17.7 | 0.00 | 0.00 | 0.00 | 30 | 1031.0 |
| 20260509184301 | 21 | 106 | 8.0 | 16.1 | 0.00 | 0.00 | 0.00 | 29 | 1031.0 |
| 20260509183800 | 21 | 96 | 6.4 | 17.7 | 0.00 | 0.00 | 0.00 | 30 | 1031.0 |
| 20260509183301 | 21 | 99 | 9.7 | 17.7 | 0.00 | 0.00 | 0.00 | 31 | 1031.1 |
| 20260509182759 | 21 | 69 | 6.4 | 16.1 | 0.00 | 0.00 | 0.00 | 33 | 1031.1 |
| 20260509182300 | 20 | 79 | 6.4 | 14.5 | 0.00 | 0.00 | 0.00 | 34 | 1031.1 |
| 20260509181801 | 20 | 62 | 6.4 | 16.1 | 0.00 | 0.00 | 0.00 | 33 | 1031.3 |
| 20260509181259 | 20 | 69 | 4.8 | 16.1 | 0.00 | 0.00 | 0.00 | 32 | 1031.2 |
| 20260509180800 | 20 | 86 | 6.4 | 11.3 | 0.00 | 0.00 | 0.00 | 34 | 1031.2 |
| 20260509180259 | 20 | 83 | 3.2 | 11.3 | 0.00 | 0.00 | 0.00 | 31 | 1031.2 |
| 20260509175800 | 20 | 51 | 3.2 | 9.7 | 0.00 | 0.00 | 0.00 | 32 | 1031.3 |
| 20260509175258 | 20 | 83 | 3.2 | 9.7 | 0.00 | 0.00 | 0.00 | 32 | 1031.2 |
| 20260509174759 | 20 | 51 | 4.8 | 8.0 | 0.00 | 0.00 | 0.00 | 33 | 1031.2 |
| 20260509174259 | 20 | 99 | 3.2 | 9.7 | 0.00 | 0.00 | 0.00 | 32 | 1031.2 |
| 20260509174017 | 19 | 282 | 4.8 | 9.7 | 0.00 | 0.00 | 0.00 | 32 | 1031.3 |
| 20260509173259 | 19 | 158 | 4.8 | 8.0 | 0.00 | 0.00 | 0.00 | 33 | 1031.4 |
| 20260509172759 | 18 | 59 | 3.2 | 9.7 | 0.00 | 0.00 | 0.00 | 34 | 1031.4 |
| 20260509172259 | 18 | 102 | 3.2 | 9.7 | 0.00 | 0.00 | 0.00 | 34 | 1031.4 |
| 20260509171758 | 18 | 114 | 3.2 | 6.4 | 0.00 | 0.00 | 0.00 | 35 | 1031.4 |
| 20260509171300 | 18 | 79 | 3.2 | 8.0 | 0.00 | 0.00 | 0.00 | 34 | 1031.5 |
| 20260509170758 | 18 | 118 | 3.2 | 8.0 | 0.00 | 0.00 | 0.00 | 34 | 1031.5 |
| 20260509170258 | 18 | 135 | 1.6 | 8.0 | 0.00 | 0.00 | 0.00 | 36 | 1031.5 |
| 20260509165758 | 18 | 275 | 1.6 | 4.8 | 0.00 | 0.00 | 0.00 | 35 | 1031.6 |
| 20260509165258 | 17 | 87 | 0.0 | 6.4 | 0.00 | 0.00 | 0.00 | 35 | 1031.6 |
| 20260509164758 | 17 | 51 | 1.6 | 6.4 | 0.00 | 0.00 | 0.00 | 37 | 1031.7 |
| 20260509164257 | 17 | 16 | 1.6 | 4.8 | 0.00 | 0.00 | 0.00 | 38 | 1031.9 |
| 20260509163759 | 17 | 274 | 0.0 | 8.0 | 0.00 | 0.00 | 0.00 | 39 | 1031.8 |
| 20260509163257 | 16 | 13 | 3.2 | 8.0 | 0.00 | 0.00 | 0.00 | 40 | 1032.0 |
| 20260509162759 | 16 | 38 | 1.6 | 8.0 | 0.00 | 0.00 | 0.00 | 39 | 1032.2 |
| 20260509162257 | 16 | 66 | 4.8 | 8.0 | 0.00 | 0.00 | 0.00 | 39 | 1032.2 |
| 20260509161757 | 16 | 66 | 3.2 | 6.4 | 0.00 | 0.00 | 0.00 | 42 | 1032.3 |
| 20260509161255 | 16 | 68 | 3.2 | 6.4 | 0.00 | 0.00 | 0.00 | 41 | 1032.3 |
| 20260509160753 | 16 | 87 | 3.2 | 8.0 | 0.00 | 0.00 | 0.00 | 40 | 1032.4 |
| 20260509160258 | 16 | 203 | 1.6 | 8.0 | 0.00 | 0.00 | 0.00 | 40 | 1032.4 |
| 20260509160012 | 16 | 78 | 1.6 | 4.8 | 0.00 | 0.00 | 0.00 | 42 | 1032.5 |
| 20260509155258 | 16 | 89 | 1.6 | 4.8 | 0.00 | 0.00 | 0.00 | 40 | 1032.5 |
| 20260509154756 | 16 | 353 | 0.0 | 4.8 | 0.00 | 0.00 | 0.00 | 44 | 1032.5 |
| 20260509154258 | 16 | 45 | 1.6 | 4.8 | 0.00 | 0.00 | 0.00 | 43 | 1032.4 |
| 20260509153756 | 15 | 10 | 1.6 | 6.4 | 0.00 | 0.00 | 0.00 | 45 | 1032.5 |
| 20260509153740 | 15 | 307 | 0.0 | 6.4 | 0.00 | 0.00 | 0.00 | 44 | 1032.5 |
| 20260509152756 | 15 | 329 | 1.6 | 4.8 | 0.00 | 0.00 | 0.00 | 45 | 1032.5 |
| 20260509152743 | 15 | 38 | 0.0 | 6.4 | 0.00 | 0.00 | 0.00 | 45 | 1032.6 |
| 20260509151756 | 14 | 42 | 1.6 | 6.4 | 0.00 | 0.00 | 0.00 | 45 | 1032.6 |
| 20260509151256 | 14 | 16 | 1.6 | 4.8 | 0.00 | 0.00 | 0.00 | 46 | 1032.5 |
| 20260509150757 | 14 | 80 | 0.0 | 4.8 | 0.00 | 0.00 | 0.00 | 45 | 1032.5 |
| 20260509150255 | 13 | 85 | 1.6 | 4.8 | 0.00 | 0.00 | 0.00 | 47 | 1032.6 |
| 20260509145755 | 13 | 17 | 1.6 | 4.8 | 0.00 | 0.00 | 0.00 | 47 | 1032.6 |
| 20260509145515 | 13 | 25 | 1.6 | 3.2 | 0.00 | 0.00 | 0.00 | 49 | 1032.5 |
| 20260509144755 | 13 | 32 | 1.6 | 3.2 | 0.00 | 0.00 | 0.00 | 49 | 1032.5 |
| 20260509144514 | 13 | 27 | 1.6 | 3.2 | 0.00 | 0.00 | 0.00 | 50 | 1032.5 |
| 20260509144024 | 13 | 295 | 0.0 | 4.8 | 0.00 | 0.00 | 0.00 | 51 | 1032.5 |
| 20260509143255 | 13 | 28 | 0.0 | 4.8 | 0.00 | 0.00 | 0.00 | 50 | 1032.4 |
| 20260509142754 | 12 | 25 | 0.0 | 4.8 | 0.00 | 0.00 | 0.00 | 50 | 1032.4 |
| 20260509142255 | 12 | 351 | 1.6 | 9.7 | 0.00 | 0.00 | 0.00 | 51 | 1032.4 |
| 20260509141754 | 12 | 282 | 1.6 | 11.3 | 0.00 | 0.00 | 0.00 | 51 | 1032.5 |
| 20260509141254 | 11 | 258 | 4.8 | 11.3 | 0.00 | 0.00 | 0.00 | 51 | 1032.5 |
| 20260509140755 | 11 | 262 | 6.4 | 11.3 | 0.00 | 0.00 | 0.00 | 51 | 1032.4 |
| 20260509140514 | 11 | 258 | 4.8 | 9.7 | 0.00 | 0.00 | 0.00 | 53 | 1032.4 |
| 20260509135754 | 11 | 282 | 1.6 | 16.1 | 0.00 | 0.00 | 0.00 | 53 | 1032.4 |
| 20260509135253 | 11 | 279 | 6.4 | 16.1 | 0.00 | 0.00 | 0.00 | 53 | 1032.3 |
| 20260509134755 | 11 | 278 | 3.2 | 6.4 | 0.00 | 0.00 | 0.00 | 55 | 1032.3 |
| 20260509134253 | 10 | 271 | 0.0 | 11.3 | 0.00 | 0.00 | 0.00 | 55 | 1032.3 |
| 20260509133755 | 10 | 268 | 3.2 | 11.3 | 0.00 | 0.00 | 0.00 | 56 | 1032.2 |
| 20260509133253 | 10 | 286 | 3.2 | 8.0 | 0.00 | 0.00 | 0.00 | 57 | 1032.2 |
| 20260509132753 | 9 | 275 | 3.2 | 8.0 | 0.00 | 0.00 | 0.00 | 58 | 1032.2 |
| 20260509132252 | 9 | 278 | 0.0 | 4.8 | 0.00 | 0.00 | 0.00 | 59 | 1032.2 |
| 20260509131753 | 9 | 278 | 1.6 | 4.8 | 0.00 | 0.00 | 0.00 | 59 | 1032.2 |
| 20260509131250 | 9 | 268 | 1.6 | 4.8 | 0.00 | 0.00 | 0.00 | 60 | 1032.0 |
| 20260509130752 | 8 | 269 | 0.0 | 1.6 | 0.00 | 0.00 | 0.00 | 61 | 1032.0 |
| 20260509130253 | 8 | 234 | 0.0 | 6.4 | 0.00 | 0.00 | 0.00 | 61 | 1032.0 |
| 20260509125752 | 8 | 344 | 0.0 | 6.4 | 0.00 | 0.00 | 0.00 | 60 | 1032.0 |
| 20260509125253 | 8 | 272 | 0.0 | 9.7 | 0.00 | 0.00 | 0.00 | 60 | 1032.2 |
| 20260509125013 | 8 | 271 | 1.6 | 9.7 | 0.00 | 0.00 | 0.00 | 61 | 1032.0 |
| 20260509124252 | 8 | 281 | 1.6 | 4.8 | 0.00 | 0.00 | 0.00 | 63 | 1032.2 |
| 20260509123749 | 7 | 276 | 3.2 | 4.8 | 0.00 | 0.00 | 0.00 | 64 | 1032.2 |
| 20260509123508 | 7 | 266 | 0.0 | 4.8 | 0.00 | 0.00 | 0.00 | 62 | 1032.2 |
| 20260509123008 | 8 | 259 | 1.6 | 3.2 | 0.00 | 0.00 | 0.00 | 61 | 1032.3 |
| 20260509122252 | 8 | 255 | 0.0 | 1.6 | 0.00 | 0.00 | 0.00 | 60 | 1032.2 |
| 20260509121753 | 8 | 103 | 0.0 | 1.6 | 0.00 | 0.00 | 0.00 | 59 | 1032.3 |
| 20260509121252 | 8 | 103 | 0.0 | 1.6 | 0.00 | 0.00 | 0.00 | 59 | 1032.3 |
| 20260509120751 | 8 | 130 | 0.0 | 1.6 | 0.00 | 0.00 | 0.00 | 58 | 1032.3 |
| 20260509120252 | 9 | 104 | 0.0 | 1.6 | 0.00 | 0.00 | 0.00 | 57 | 1032.3 |
| 20260509115751 | 9 | 94 | 0.0 | 8.0 | 0.00 | 0.00 | 0.00 | 55 | 1032.3 |
| 20260509115252 | 9 | 144 | 1.6 | 8.0 | 0.00 | 0.00 | 0.00 | 55 | 1032.3 |
| 20260509114750 | 10 | 63 | 1.6 | 4.8 | 0.00 | 0.00 | 0.00 | 53 | 1032.4 |
| 20260509114249 | 11 | 244 | 0.0 | 4.8 | 0.00 | 0.00 | 0.00 | 51 | 1032.3 |
| 20260509113750 | 11 | 307 | 0.0 | 6.4 | 0.00 | 0.00 | 0.00 | 51 | 1032.3 |
| 20260509113252 | 11 | 282 | 0.0 | 9.7 | 0.00 | 0.00 | 0.00 | 51 | 1032.3 |
| 20260509112251 | 11 | 299 | 4.8 | 9.7 | 0.00 | 0.00 | 0.00 | 50 | 1032.3 |
| 20260509111750 | 11 | 326 | 1.6 | 11.3 | 0.00 | 0.00 | 0.00 | 50 | 1032.2 |
| 20260509111250 | 11 | 281 | 3.2 | 11.3 | 0.00 | 0.00 | 0.00 | 50 | 1032.2 |
| 20260509110747 | 11 | 266 | 4.8 | 19.3 | 0.00 | 0.00 | 0.00 | 49 | 1032.2 |
| 20260509110246 | 12 | 288 | 8.0 | 19.3 | 0.00 | 0.00 | 0.00 | 48 | 1032.3 |
| 20260509105748 | 12 | 265 | 8.0 | 19.3 | 0.00 | 0.00 | 0.00 | 49 | 1032.3 |
| 20260509105249 | 11 | 234 | 9.7 | 16.1 | 0.00 | 0.00 | 0.00 | 49 | 1032.3 |
| 20260509104751 | 11 | 298 | 8.0 | 14.5 | 0.00 | 0.00 | 0.00 | 50 | 1032.3 |
| 20260509104521 | 11 | 274 | 6.4 | 14.5 | 0.00 | 0.00 | 0.00 | 50 | 1032.4 |
| 20260509103749 | 11 | 288 | 6.4 | 14.5 | 0.00 | 0.00 | 0.00 | 50 | 1032.4 |
| 20260509103249 | 11 | 289 | 4.8 | 8.0 | 0.00 | 0.00 | 0.00 | 51 | 1032.3 |
| 20260509102745 | 11 | 269 | 3.2 | 9.7 | 0.00 | 0.00 | 0.00 | 50 | 1032.3 |
| 20260509102246 | 11 | 262 | 4.8 | 9.7 | 0.00 | 0.00 | 0.00 | 50 | 1032.2 |
| 20260509101745 | 11 | 283 | 4.8 | 8.0 | 0.00 | 0.00 | 0.00 | 50 | 1032.2 |
| 20260509101247 | 11 | 274 | 1.6 | 6.4 | 0.00 | 0.00 | 0.00 | 50 | 1032.2 |
| 20260509100749 | 12 | 295 | 1.6 | 8.0 | 0.00 | 0.00 | 0.00 | 48 | 1031.9 |
| 20260509100249 | 12 | 288 | 4.8 | 8.0 | 0.00 | 0.00 | 0.00 | 48 | 1032.0 |
| 20260509095748 | 12 | 266 | 1.6 | 8.0 | 0.00 | 0.00 | 0.00 | 48 | 1031.9 |
| 20260509095248 | 12 | 278 | 1.6 | 8.0 | 0.00 | 0.00 | 0.00 | 47 | 1032.0 |
| 20260509094745 | 12 | 293 | 0.0 | 14.5 | 0.00 | 0.00 | 0.00 | 47 | 1031.9 |
| 20260509094244 | 12 | 266 | 6.4 | 19.3 | 0.00 | 0.00 | 0.00 | 46 | 1031.8 |
| 20260509093746 | 12 | 269 | 4.8 | 19.3 | 0.00 | 0.00 | 0.00 | 46 | 1031.7 |
| 20260509093513 | 12 | 268 | 4.8 | 14.5 | 0.00 | 0.00 | 0.00 | 46 | 1031.8 |
| 20260509092746 | 12 | 295 | 9.7 | 20.9 | 0.00 | 0.00 | 0.00 | 45 | 1031.7 |
| 20260509092248 | 12 | 283 | 9.7 | 20.9 | 0.00 | 0.00 | 0.00 | 46 | 1031.6 |
| 20260509092012 | 12 | 278 | 8.0 | 20.9 | 0.00 | 0.00 | 0.00 | 46 | 1031.5 |
| 20260509091247 | 13 | 300 | 9.7 | 24.1 | 0.00 | 0.00 | 0.00 | 45 | 1031.4 |
| 20260509090747 | 13 | 279 | 12.9 | 24.1 | 0.00 | 0.00 | 0.00 | 46 | 1031.5 |
| 20260509090247 | 13 | 282 | 11.3 | 20.9 | 0.00 | 0.00 | 0.00 | 46 | 1031.5 |
| 20260509085747 | 13 | 282 | 9.7 | 16.1 | 0.00 | 0.00 | 0.00 | 46 | 1031.5 |
| 20260509085247 | 13 | 302 | 9.7 | 20.9 | 0.00 | 0.00 | 0.00 | 46 | 1031.5 |
| 20260509084746 | 13 | 272 | 9.7 | 20.9 | 0.00 | 0.00 | 0.00 | 46 | 1031.5 |
| 20260509084247 | 12 | 285 | 8.0 | 16.1 | 0.00 | 0.00 | 0.00 | 46 | 1031.5 |
| 20260509083747 | 13 | 259 | 9.7 | 19.3 | 0.00 | 0.00 | 0.00 | 46 | 1031.5 |
| 20260509083512 | 13 | 274 | 11.3 | 19.3 | 0.00 | 0.00 | 0.00 | 46 | 1031.4 |
| 20260509082746 | 13 | 295 | 9.7 | 17.7 | 0.00 | 0.00 | 0.00 | 46 | 1031.4 |
| 20260509082246 | 13 | 276 | 8.0 | 17.7 | 0.00 | 0.00 | 0.00 | 46 | 1031.3 |
| 20260509082008 | 12 | 282 | 6.4 | 16.1 | 0.00 | 0.00 | 0.00 | 46 | 1031.3 |
| 20260509081246 | 12 | 276 | 6.4 | 14.5 | 0.00 | 0.00 | 0.00 | 47 | 1031.3 |
| 20260509080747 | 12 | 289 | 4.8 | 14.5 | 0.00 | 0.00 | 0.00 | 47 | 1031.2 |
| 20260509080246 | 13 | 241 | 4.8 | 11.3 | 0.00 | 0.00 | 0.00 | 46 | 1031.2 |
| 20260509075747 | 13 | 262 | 6.4 | 16.1 | 0.00 | 0.00 | 0.00 | 46 | 1031.1 |